Regional Weather Roundup
Issued by NWS Columbia, SC

Home | Current Version | Previous Version | Text Only | Print | Product List | Glossary On
Versions: 1 2 3 4 5 6 7 8 9 10 11 12 13 14 15 16 17 18 19 20 21 22 23 24 25 26 27 28 29 30 31 32 33 34 35 36 37 38 39 40 41 42 43 44 45 46 47 48 49 50
000
ASUS42 KCAE 290110
RWRCAE
REGIONAL WEATHER ROUNDUP
NATIONAL WEATHER SERVICE COLUMBIA SC
900 PM EDT MON JUL 28 2014

NOTE: "FAIR" INDICATES FEW OR NO CLOUDS BELOW 12,000 FEET WITH NO
SIGNIFICANT WEATHER AND/OR OBSTRUCTIONS TO VISIBILITY.

NOT ALL STATIONS ARE QUALITY CONTROLLED BY THE NATIONAL
WEATHER SERVICE. USE DATA WITH CAUTION...ESPECIALLY
DEWPOINT OBSERVATIONS.

SCZ001>056-GAZ040-063>065-077-290200-
...UPSTATE SOUTH CAROLINA...

CITY           SKY/WX    TMP DP  RH WIND       PRES   REMARKS
ANDERSON       CLEAR     78  56  46 N5        29.90R
LIBERTY        FAIR      76  75  98 NW5       29.91R
SPARTANBURG    FAIR      81  55  41 N7        29.89R
CLEMSON        CLEAR     80  53  39 NW10      29.92R
GREENVILLE     PTCLDY    79  57  46 N5        29.92R
GREENWOOD      PTCLDY    81  58  45 W3        29.90R
GREER          CLEAR     77  57  50 N6        29.89R
ROCK HILL      MOCLDY    77  59  53 NW5       29.89R
CHESTER        FAIR      81  63  54 CALM      29.89R
LAURENS        FAIR      79  61  53 N3        29.91R


...CENTRAL SOUTH CAROLINA...

CITY           SKY/WX    TMP DP  RH WIND       PRES   REMARKS
COLUMBIA APT   PTCLDY    88  61  40 NW7       29.84R
COLUMBIA OWENS PTCLDY    87  60  40 N3        29.85R
DARLINGTON     PTCLDY    81  64  57 N7        29.84R
MCENTIRE ANGB  PTCLDY    85  63  47 N7        29.85R
ORANGEBURG     CLEAR     85  66  53 W3        29.83R
SUMTER SHAW    CLEAR     85  64  48 N10       29.82R
NEWBERRY       FAIR      79  59  50 N6        29.91R
AIKEN          FAIR      84  61  45 NW5       29.90R
BARNWELL       FAIR      86  72  62 W3        29.85R
MANNING        MOCLDY    82  73  74 CALM      29.81R
CAMDEN         FAIR      82  59  44 N5        29.86R
LANCASTER      FAIR      79  61  53 NW3       29.87R
WINNSBORO      FAIR      81  59  47 N5        29.87R


...EASTERN AND COASTAL SOUTH CAROLINA...

CITY           SKY/WX    TMP DP  RH WIND       PRES   REMARKS
MYRTLE BEACH   PTCLDY    75  70  83 NE7       29.81R
N MYRTLE BCH   MOCLDY    76  73  91 CALM      29.79S
CONWAY         FAIR      73  73 100 W3        29.81S FOG
MARION         FAIR      79  73  83 CALM      29.81R
HARTSVILLE     FAIR      82  34  17 N3        29.86R
DARLINGTON     PTCLDY    81  64  57 N7        29.84R
CHARLESTON APT PTCLDY    86  75  69 SW7       29.82R HX  95
MOUNT PLEASANT FAIR      86  75  70 W5        29.81R HX  95
WALTERBORO     CLEAR     81  68  65 SW6       29.84R
BEAUFORT       MOCLDY    84  76  76 W7        29.83R


...EASTERN GEORGIA...

CITY           SKY/WX    TMP DP  RH WIND       PRES   REMARKS
AUGUSTA BUSH F CLEAR     85  62  46 N10       29.85R
AUGUSTA DANIEL CLEAR     88  59  37 NW9       29.87R
THOMSON        CLEAR     82  70  66 NW3       29.92R
WASHINGTON     FAIR      84  64  51 NW6       29.90R
CLAXTON        FAIR      81  79  94 CALM      29.86R
SYLVANIA       TSTM      79  76  90 W7        29.88R
STATESBORO     MOCLDY    81  71  70 NW14G21   29.88R
SAVANNAH       MOCLDY    86  69  56 W6        29.85R


...SOUTHERN NORTH CAROLINA...

CITY           SKY/WX    TMP DP  RH WIND       PRES   REMARKS
CHARLOTTE      MOCLDY    77  57  50 N6        29.89R
MONROE         PTCLDY    79  59  50 N5        29.87R
WADESBORO      PTCLDY    79  60  51 CALM      29.84S
ROCKINGHAM       N/A     81  61  50 N6        29.84R
RUTHERFORDTON  CLEAR     73  61  66 CALM      29.92R
ASHEVILLE      PTCLDY    70  57  63 N10       29.99R

$$


USA.gov is the U.S. government's official web portal to all federal, state and local government web resources and services.